Regional Weather Roundup
Issued by NWS

Home | Current Version | Previous Version | Graphics & Text | Print | Product List | Glossary On
Versions: 1 2 3 4 5 6 7 8 9 10 11 12 13 14 15 16 17 18 19 20 21 22 23 24 25 26 27 28 29 30 31 32 33 34 35 36 37 38 39 40 41 42 43 44 45 46 47 48 49 50
787
ASUS43 KIND 160759
RWRIN

WEATHER ROUNDUP FOR INDIANA
NATIONAL WEATHER SERVICE INDIANAPOLIS IN
300 AM EST TUE JAN 16 2018

NOTE: "FAIR" INDICATES FEW OR NO CLOUDS BELOW 12,000 FEET WITH NO
SIGNIFICANT WEATHER AND/OR OBSTRUCTIONS TO VISIBILITY.

* - STATION DOES NOT REPORT WEATHER SUCH AS PRECIPITATION OR FOG.

+ - STATION NOT QUALITY CONTROLLED BY THE NATIONAL WEATHER SERVICE.
    USE DATA WITH CAUTION...ESPECIALLY DEWPOINT AND RELATIVE
    HUMIDITY OBSERVATIONS.

INZ001>003-010>013-019-020-160900-
NORTHWEST INDIANA

CITY           SKY/WX    TMP DP  RH WIND       PRES   REMARKS
KNOX *+        CLOUDY     3   0  85 SW14      30.38R WCI -15
MONTICELLO +   FAIR       1  -6  75 W12       30.42S WCI -16

$$

LMZ046-743>745-160900-
SOUTHERN LAKE MICHIGAN

STATION/POSITION TIME  TEMP    WIND        PRES    WAVE
                       AIR SEA DIR/SP/G            HT
                 (UTC) (F)     (DEG/KT/KT) (MB)    (FT)
BURNS HARBOR     0740    7     220/ 12/ 18 1028.8R
MICHIGAN CITY    0730          180/ 13/ 14   N/A

$$

INZ004-005-014>016-021>024-160900-
NORTH CENTRAL INDIANA

CITY           SKY/WX    TMP DP  RH WIND       PRES   REMARKS
GOSHEN         FAIR       0  -4  83 SW10      30.36R WCI -16
PERU/GRISSOM   CLOUDY     1  -3  84 W13       30.39S WCI -17
SOUTH BEND     CLOUDY     2  -2  83 S10       30.36R WCI -14

$$

INZ006>009-017-018-025>027-160900-
NORTHEAST INDIANA

CITY           SKY/WX    TMP DP  RH WIND       PRES   REMARKS
FORT WAYNE     MOCLDY     7   1  76 W13       30.37R WCI  -9
KENDALLVILLE + FAIR       2  -2  83 W10       30.34R WCI -14

$$

INZ028-029-035-036-043>045-051>053-160900-
WEST CENTRAL INDIANA

CITY           SKY/WX    TMP DP  RH WIND       PRES   REMARKS
GREENCASTLE +  FAIR       1  -4  78 CALM      30.47R
LAFAYETTE      CLOUDY     0  -5  79 W12       30.46R WCI -17
TERRE HAUTE    FAIR       0  -7  72 W10       30.52R WCI -16

$$

INZ030>032-037>040-046>048-054>057-064-065-160900-
CENTRAL INDIANA

CITY           SKY/WX    TMP DP  RH WIND       PRES   REMARKS
GREENWOOD *+   FAIR       4  -3  74 W9        30.45R WCI -10
INDIANAPOLIS   FAIR      -1  -5  82 SW10      30.45R WCI -17
-EAGLE CREEK   FAIR       2  -4  76 W6        30.44R WCI  -9
MT COMFORT *+  FAIR       0  -2  92 W9        30.44R WCI -16
SHELBYVILLE    FAIR       5  -3  69 W9        30.45R WCI  -9

$$

INZ033-034-041-042-049-050-058-059-160900-
EAST CENTRAL INDIANA

CITY           SKY/WX    TMP DP  RH WIND       PRES   REMARKS
MUNCIE         MOCLDY     5  -2  72 W16       30.40R WCI -14
RICHMOND +     FAIR       5   1  85 W13       30.40R WCI -12

$$

INZ060-061-067>069-081>083-085>088-160900-
SOUTHWEST INDIANA

CITY           SKY/WX    TMP DP  RH WIND       PRES   REMARKS
EVANSVILLE     FAIR       8  -1  66 NW9G18    30.57R WCI  -5
HUNTINGBURG +  CLOUDY     8   0  69 NW12      30.55R WCI  -7

$$

INZ062-063-066-070>080-084-089>092-160900-
SOUTH CENTRAL AND SOUTHEAST INDIANA

CITY           SKY/WX    TMP DP  RH WIND       PRES   REMARKS
BLOOMINGTON    FAIR       3  -5  69 W8        30.48R WCI -10
MADISON *+     CLOUDY    14   5  67 W5        30.47R WCI   6
SEYMOUR +      FAIR      10   1  67 W9        30.50R WCI  -2

$$





USA.gov is the U.S. government's official web portal to all federal, state and local government web resources and services.